Home > Weather > Akron > Past weeks

Flag for USA Past Weather in Akron, Ohio, USA — Yesterday and Last 2 Weeks

Now
78 °F

Passing clouds.


Feels Like: 80 °F
Forecast: 70 / 88 °F
Wind: 6 mph from Northeast

Location: Akron Fulton International Airport

Current Time: Jul 27, 2016 at 10:59:39 PM

Latest Report: Jul 27, 2016 at 9:54 PM


Visibility: 10 mi

Pressure: 29.93 "Hg

Humidity: 54%

Dew Point: 60 °F

Location of AkronLocation

Past Weather in Akron — Graph

°F

Akron Temperature Yesterday

Maximum temperature yesterday: 87 °F (at 1:54 PM)
Minimum temperature yesterday: 71 °F (at 5:54 AM)
Average temperature yesterday: 78 °F

High & Low Weather Summary for the Past Weeks

 TemperatureHumidityPressure
High94 °F (Jul 23, 3:54 PM)91% (Jul 23, 3:54 AM)30.27 "Hg (Jul 23, 3:54 AM)
Low58 °F (Jul 20, 6:54 AM)26% (Jul 20, 1:54 PM)29.84 "Hg (Jul 14, 3:54 AM)
Average79 °F64%30.02 "Hg
* Reported Jul 12 8:54 PM — Jul 27 8:54 PM, Akron, Weather by CustomWeather, © 2016

Note: Actual official high and low records may vary slightly from our data, if they occured in-between our weather recording intervals... More about our weather records

Advertising

Akron Weather History for the Previous 24 Hours

Scroll right to see more
 ConditionsComfort  
Time TempWeatherWind HumidityBarometerVisibility
8:54 PM
Wed, Jul 27
82 °FPassing clouds.7 mph48%29.92 "Hg10 mi
7:54 PM86 °FSunny.12 mph43%29.91 "Hg10 mi
6:54 PM90 °FSunny.No wind33%29.90 "Hg10 mi
5:54 PM90 °FSunny.6 mph33%29.91 "Hg10 mi
4:54 PM90 °FSunny.5 mph34%29.93 "Hg10 mi
3:54 PM90 °FSunny.3 mph33%29.94 "Hg10 mi
2:54 PM89 °FSunny.5 mph35%29.96 "Hg10 mi
1:54 PM88 °FSunny.6 mph36%29.98 "Hg10 mi
12:54 PM87 °FSunny.5 mph39%29.99 "Hg10 mi
11:54 AM86 °FSunny.3 mph39%30.00 "Hg10 mi
10:54 AM85 °FSunny.6 mph40%30.00 "Hg10 mi
9:54 AM82 °FSunny.No wind44%30.01 "Hg10 mi
8:54 AM76 °FScattered clouds.No wind62%30.02 "Hg10 mi
7:54 AM72 °FSunny.No wind73%30.01 "Hg10 mi
6:54 AM66 °FClear.No wind84%30.01 "Hg10 mi
5:54 AM67 °FPassing clouds.No wind81%30.00 "Hg10 mi
4:54 AM68 °FPassing clouds.No wind78%29.99 "Hg10 mi
3:54 AM68 °FPassing clouds.No wind78%29.98 "Hg10 mi
2:54 AM69 °FPassing clouds.No wind73%29.99 "Hg10 mi
1:54 AM69 °FPassing clouds.No wind73%30.00 "Hg10 mi
12:54 AM69 °FPassing clouds.No wind70%30.00 "Hg10 mi
11:54 PM
Tue, Jul 26
71 °FClear.No wind61%30.00 "Hg10 mi
10:54 PM71 °FClear.No wind61%30.00 "Hg10 mi
Weather by CustomWeather, © 2016

See weather overviewHow to use our weather pages